Elephant Butte, NM

11:53 AM MST on December 10, 2016 (GMT -0700)
Truth Or Consequences Municipal

Weather History for KTCS - October, 2012

Change the Weather History Date:

Tuesday, October 2, 2012

  Actual Average Record
Temperature  
Mean Temperature 69 °F -  
Max Temperature 86 °F 79 °F 91 °F (2000)
Min Temperature 52 °F 53 °F 52 °F (2012)
Degree Days  
Heating Degree Days 0    
Month to date heating degree days  
Since 1 July heating degree days  
Cooling Degree Days 4    
Month to date cooling degree days  
Year to date cooling degree days  
Growing Degree Days 19 (Base 50)    
Moisture  
Dew Point 34 °F    
Average Humidity 28    
Maximum Humidity 47    
Minimum Humidity 8    
Precipitation  
Precipitation 0.00 in - 0.16 in (2011)
Month to date precipitation  
Year to date precipitation  
Sea Level Pressure  
Sea Level Pressure 29.87 in    
Wind  
Wind Speed 6 mph (SSW)    
Max Wind Speed 10 mph    
Max Gust Speed 18 mph    
Visibility 10 miles    
Events      
T = Trace of Precipitation, MM = Missing Value Source: NWS Daily Summary

Daily Weather History Graph

Daily Weather History Graph

Search for Another Location

Airport or City:

Trip Planner

Search our weather history database for the weather conditions in past years. The results will help you decide how hot, cold, wet, or windy it might be!

Date:

Astronomy

Oct. 02, 2012 Rise Set
Actual Time 7:04 AM MDT 6:51 PM MDT
Civil Twilight 6:39 AM MDT 7:16 PM MDT
Nautical Twilight 6:10 AM MDT 7:44 PM MDT
Astronomical Twilight 5:42 AM MDT 8:13 PM MDT
Moon 8:17 PM MDT (10/2) 9:24 AM MDT (10/2)
Length of Visible Light 12h 36m
Length of Day
11h 47m
Waning Gibbous, 94% of the Moon is Illuminated
Oct 2
Waning Gibbous
Oct 8
Last Quarter
Oct 15
New
Oct 21
First Quarter
Oct 29
Full

Hourly Weather History & Observations

Time (MDT) Temp. Dew Point Humidity Pressure Visibility Wind Dir Wind Speed Gust Speed Precip Events Conditions
12:53 AM 68.0 °F 37.0 °F 32% 29.91 in 10.0 mi SSW 10.4 mph - N/A   Clear
1:53 AM 64.9 °F 37.9 °F 37% 29.93 in 10.0 mi SSE 6.9 mph 17.3 mph N/A   Clear
2:53 AM 61.0 °F 37.9 °F 42% 29.93 in 10.0 mi South 6.9 mph - N/A   Clear
3:53 AM 57.9 °F 34.0 °F 41% 29.94 in 10.0 mi NW 4.6 mph - N/A   Clear
4:53 AM 55.9 °F 33.1 °F 42% 29.95 in 10.0 mi Calm Calm - N/A   Clear
5:53 AM 54.0 °F 33.1 °F 45% 29.96 in 10.0 mi Calm Calm - N/A   Clear
6:53 AM 55.0 °F 35.1 °F 47% 29.98 in 10.0 mi North 3.5 mph - N/A   Clear
7:53 AM 57.0 °F 36.0 °F 45% 29.98 in 10.0 mi NNW 3.5 mph - N/A   Clear
8:53 AM 64.0 °F 37.9 °F 38% 29.97 in 10.0 mi Calm Calm - N/A   Clear
9:53 AM 66.0 °F 39.9 °F 38% 29.97 in 10.0 mi WSW 3.5 mph - N/A   Clear
10:53 AM 70.0 °F 39.9 °F 33% 29.96 in 10.0 mi South 9.2 mph - N/A   Clear
11:53 AM 73.0 °F 39.9 °F 30% 29.92 in 10.0 mi Variable 5.8 mph - N/A   Clear
12:53 PM 78.1 °F 37.9 °F 24% 29.86 in 10.0 mi South 6.9 mph - N/A   Clear
1:53 PM 80.1 °F 37.0 °F 21% 29.82 in 10.0 mi South 5.8 mph - N/A   Clear
2:53 PM 84.9 °F 36.0 °F 17% 29.79 in 10.0 mi South 8.1 mph - N/A   Clear
3:53 PM 84.9 °F 34.0 °F 16% 29.77 in 10.0 mi Variable 6.9 mph 18.4 mph N/A   Clear
4:53 PM 86.0 °F 33.1 °F 15% 29.76 in 10.0 mi East 10.4 mph - N/A   Clear
5:53 PM 84.0 °F 33.1 °F 16% 29.77 in 10.0 mi East 8.1 mph - N/A   Clear
6:53 PM 80.1 °F 34.0 °F 19% 29.78 in 10.0 mi SE 3.5 mph - N/A   Clear
7:53 PM 75.0 °F 34.0 °F 22% 29.79 in 10.0 mi ESE 4.6 mph - N/A   Clear
8:53 PM 75.0 °F 34.0 °F 22% 29.78 in 10.0 mi West 3.5 mph - N/A   Clear
9:53 PM 68.0 °F 30.9 °F 25% 29.82 in 10.0 mi West 9.2 mph - N/A   Clear
10:53 PM 68.0 °F 24.1 °F 19% 29.81 in 10.0 mi NNW 6.9 mph - N/A   Clear
11:53 PM 66.9 °F 24.1 °F 20% 29.80 in 10.0 mi West 6.9 mph - N/A   Clear